When you browse on this site, cookies collect data to enhance your experience and personalize the content and advertising you see.
Visit our Privacy Policy to learn more. By continuing to use the site, you agree to this use of cookies and data.
  • In Denmark
  • List of Countries
  • For 7 days
  • Water Temperature
  • Weather Map
  • Weather Widgets
  • user-avatar
    Login

    Hourly Weather Matlock

    Today, 24 August, Saturday

    Time Temperature Precipitation Wind Pressure Humidity
    00:00 +18°C° 0 mm 1 mps 749 mmHg 86%
    01:00 +16°C° 0 mm 1 mps 749 mmHg 85%
    02:00 +16°C° 0 mm 1 mps 749 mmHg 85%
    03:00 +15°C° 0 mm 1 mps 749 mmHg 84%
    04:00 +15°C° 0 mm 1 mps 748 mmHg 83%
    05:00 +15°C° 0 mm 1 mps 748 mmHg 83%
    06:00 +15°C° 0 mm 1 mps 748 mmHg 82%
    07:00 +16°C° 0 mm 1 mps 748 mmHg 75%
    08:00 +18°C° 0 mm 2 mps 748 mmHg 68%
    09:00 +20°C° 0 mm 2 mps 748 mmHg 61%
    10:00 +21°C° 0 mm 2 mps 748 mmHg 56%
    11:00 +22°C° 0 mm 3 mps 748 mmHg 52%
    12:00 +25°C° 0 mm 3 mps 748 mmHg 48%
    13:00 +25°C° 0 mm 3 mps 748 mmHg 48%
    14:00 +26°C° 0 mm 3 mps 747 mmHg 48%
    15:00 +26°C° 0 mm 3 mps 747 mmHg 48%
    16:00 +25°C° 0 mm 3 mps 747 mmHg 53%
    17:00 +25°C° 0 mm 2 mps 747 mmHg 58%
    18:00 +24°C° 0 mm 2 mps 746 mmHg 62%
    19:00 +22°C° 0 mm 1 mps 746 mmHg 64%
    20:00 +21°C° 0 mm 1 mps 747 mmHg 66%
    21:00 +20°C° 0 mm 1 mps 747 mmHg 67%
    22:00 +19°C° 0 mm 1 mps 747 mmHg 69%
    23:00 +19°C° 0 mm 1 mps 747 mmHg 71%

    Tomorrow, 25 August, Sunday

    Time Temperature Precipitation Wind Pressure Humidity
    00:00 +18°C° 0 mm 1 mps 747 mmHg 73%
    01:00 +18°C° 0 mm 1 mps 747 mmHg 74%
    02:00 +18°C° 0 mm 1 mps 746 mmHg 75%
    03:00 +16°C° 0 mm 1 mps 746 mmHg 76%
    04:00 +16°C° 0 mm 1 mps 746 mmHg 77%
    05:00 +16°C° 0 mm 1 mps 746 mmHg 77%
    06:00 +18°C° 0 mm 1 mps 746 mmHg 78%
    07:00 +19°C° 0 mm 1 mps 747 mmHg 73%
    08:00 +20°C° 0 mm 2 mps 747 mmHg 68%
    09:00 +23°C° 0 mm 2 mps 747 mmHg 64%
    10:00 +24°C° 0 mm 2 mps 747 mmHg 60%
    11:00 +25°C° 0 mm 2 mps 747 mmHg 57%
    12:00 +26°C° 0 mm 3 mps 747 mmHg 53%
    13:00 +27°C° 0 mm 3 mps 747 mmHg 52%
    14:00 +28°C° 0 mm 3 mps 747 mmHg 50%
    15:00 +28°C° 0 mm 3 mps 747 mmHg 48%
    16:00 +27°C° 0 mm 3 mps 747 mmHg 51%
    17:00 +26°C° 0 mm 2 mps 747 mmHg 55%
    18:00 +26°C° 0 mm 2 mps 747 mmHg 58%
    19:00 +24°C° 0 mm 2 mps 747 mmHg 63%
    20:00 +23°C° 0 mm 2 mps 747 mmHg 67%
    21:00 +20°C° 0 mm 3 mps 748 mmHg 71%
    22:00 +20°C° 0 mm 2 mps 748 mmHg 73%
    23:00 +19°C° 0 mm 2 mps 748 mmHg 75%

    Day after tomorrow, 26 August, Monday

    Time Temperature Precipitation Wind Pressure Humidity
    00:00 +19°C° 0 mm 2 mps 747 mmHg 77%
    01:00 +19°C° 0 mm 1 mps 747 mmHg 78%
    02:00 +19°C° 0 mm 1 mps 747 mmHg 79%
    03:00 +18°C° 0 mm 1 mps 747 mmHg 80%
    04:00 +18°C° 0 mm 1 mps 747 mmHg 81%
    05:00 +18°C° 0 mm 1 mps 747 mmHg 81%
    06:00 +18°C° 0 mm 1 mps 747 mmHg 82%
    07:00 +20°C° 0 mm 1 mps 747 mmHg 76%
    08:00 +21°C° 0 mm 1 mps 747 mmHg 70%
    09:00 +23°C° 0 mm 2 mps 747 mmHg 64%
    10:00 +24°C° 0 mm 2 mps 747 mmHg 61%
    11:00 +26°C° 0 mm 3 mps 747 mmHg 57%
    12:00 +27°C° 0 mm 3 mps 747 mmHg 53%
    13:00 +27°C° 0 mm 3 mps 747 mmHg 52%
    14:00 +28°C° 0 mm 3 mps 746 mmHg 51%
    15:00 +28°C° 0 mm 3 mps 746 mmHg 50%
    16:00 +27°C° 0 mm 2 mps 746 mmHg 54%
    17:00 +26°C° 0 mm 2 mps 746 mmHg 59%
    18:00 +25°C° 0 mm 1 mps 745 mmHg 63%
    19:00 +24°C° 0 mm 1 mps 746 mmHg 64%
    20:00 +23°C° 0 mm 1 mps 746 mmHg 64%
    21:00 +22°C° 0 mm 1 mps 746 mmHg 65%
    22:00 +19°C° 0 mm 0 mps 746 mmHg 66%
    23:00 +19°C° 0 mm 0 mps 746 mmHg 68%

    27 August, Tuesday

    Time Temperature Precipitation Wind Pressure Humidity
    00:00 +18°C° 0 mm 0 mps 746 mmHg 69%
    01:00 +18°C° 0 mm 0 mps 745 mmHg 71%
    02:00 +18°C° 0 mm 0 mps 745 mmHg 73%
    03:00 +18°C° 0 mm 0 mps 745 mmHg 75%
    04:00 +17°C° 0.1 mm 0 mps 745 mmHg 76%
    05:00 +19°C° 0.1 mm 1 mps 745 mmHg 78%
    06:00 +19°C° 0.1 mm 1 mps 745 mmHg 80%
    07:00 +20°C° 0.1 mm 1 mps 745 mmHg 77%
    08:00 +21°C° 0.1 mm 1 mps 745 mmHg 74%
    09:00 +23°C° 0.1 mm 1 mps 745 mmHg 71%
    10:00 +23°C° 0.1 mm 1 mps 745 mmHg 70%
    11:00 +24°C° 0.1 mm 1 mps 745 mmHg 69%
    12:00 +24°C° 0.1 mm 2 mps 745 mmHg 68%
    13:00 +24°C° 0 mm 2 mps 744 mmHg 71%
    14:00 +23°C° 0 mm 2 mps 744 mmHg 73%
    15:00 +23°C° 0 mm 2 mps 744 mmHg 76%
    16:00 +21°C° 0.1 mm 2 mps 744 mmHg 78%
    17:00 +20°C° 0.1 mm 2 mps 744 mmHg 80%
    18:00 +20°C° 0.1 mm 2 mps 744 mmHg 82%
    19:00 +19°C° 0 mm 2 mps 744 mmHg 81%
    20:00 +19°C° 0 mm 2 mps 744 mmHg 80%
    21:00 +19°C° 0 mm 1 mps 744 mmHg 80%
    22:00 +19°C° 0 mm 1 mps 745 mmHg 78%
    23:00 +19°C° 0 mm 1 mps 745 mmHg 77%

    28 August, Wednesday

    Time Temperature Precipitation Wind Pressure Humidity
    00:00 +19°C° 0 mm 1 mps 745 mmHg 75%
    01:00 +18°C° 0 mm 1 mps 744 mmHg 76%
    02:00 +18°C° 0 mm 1 mps 744 mmHg 77%
    03:00 +16°C° 0 mm 1 mps 744 mmHg 77%
    04:00 +16°C° 0 mm 1 mps 744 mmHg 77%
    05:00 +16°C° 0 mm 1 mps 744 mmHg 77%
    06:00 +16°C° 0 mm 1 mps 744 mmHg 77%
    07:00 +16°C° 0 mm 1 mps 744 mmHg 77%
    08:00 +18°C° 0 mm 1 mps 744 mmHg 78%
    09:00 +18°C° 0 mm 1 mps 744 mmHg 78%
    10:00 +18°C° 0 mm 2 mps 744 mmHg 74%
    11:00 +19°C° 0 mm 2 mps 744 mmHg 69%
    12:00 +20°C° 0 mm 3 mps 744 mmHg 64%
    13:00 +20°C° 0.1 mm 4 mps 744 mmHg 67%
    14:00 +20°C° 0.1 mm 4 mps 744 mmHg 70%
    15:00 +20°C° 0.1 mm 5 mps 744 mmHg 73%
    16:00 +19°C° 0.3 mm 5 mps 744 mmHg 77%
    17:00 +19°C° 0.3 mm 4 mps 744 mmHg 81%
    18:00 +18°C° 0.3 mm 4 mps 744 mmHg 85%
    19:00 +17°C° 0 mm 3 mps 744 mmHg 86%
    20:00 +16°C° 0 mm 3 mps 745 mmHg 87%
    21:00 +16°C° 0 mm 2 mps 745 mmHg 89%
    22:00 +15°C° 0 mm 2 mps 745 mmHg 89%
    23:00 +14°C° 0 mm 2 mps 745 mmHg 90%

    29 August, Thursday

    Time Temperature Precipitation Wind Pressure Humidity
    00:00 +13°C° 0 mm 1 mps 745 mmHg 91%
    01:00 +13°C° 0 mm 1 mps 745 mmHg 90%
    02:00 +13°C° 0 mm 1 mps 745 mmHg 88%
    03:00 +13°C° 0 mm 1 mps 745 mmHg 87%
    04:00 +12°C° 0 mm 1 mps 745 mmHg 87%
    05:00 +12°C° 0 mm 1 mps 745 mmHg 87%
    06:00 +12°C° 0 mm 1 mps 745 mmHg 86%
    07:00 +13°C° 0 mm 1 mps 745 mmHg 81%
    08:00 +15°C° 0 mm 1 mps 745 mmHg 76%
    09:00 +16°C° 0 mm 2 mps 746 mmHg 71%
    10:00 +17°C° 0 mm 2 mps 746 mmHg 67%
    11:00 +17°C° 0 mm 3 mps 746 mmHg 64%
    12:00 +18°C° 0 mm 4 mps 745 mmHg 60%
    13:00 +19°C° 0 mm 4 mps 745 mmHg 58%
    14:00 +19°C° 0 mm 3 mps 745 mmHg 57%
    15:00 +19°C° 0 mm 3 mps 745 mmHg 55%
    16:00 +19°C° 0 mm 3 mps 745 mmHg 60%
    17:00 +18°C° 0 mm 2 mps 745 mmHg 64%
    18:00 +17°C° 0 mm 2 mps 745 mmHg 69%
    19:00 +16°C° 0 mm 2 mps 745 mmHg 74%
    20:00 +14°C° 0 mm 3 mps 745 mmHg 78%
    21:00 +13°C° 0 mm 3 mps 745 mmHg 83%
    22:00 +12°C° 0 mm 3 mps 745 mmHg 85%
    23:00 +12°C° 0 mm 3 mps 745 mmHg 87%
    Show more